Location: Newark
(35.5936°N, 43.2312°E)
Time: 02:24:37
(UTC+00:00)

Envisat - Visible Passes

Search period start: 24 July 2019 00:00
Search period end: 03 August 2019 00:00
Orbit: 764 x 766 km, 98.1° (Epoch: 23 July)

Date Brightness Start Highest point End Pass type
(mag) Time Alt. Az. Time Alt. Az. Time Alt. Az.
24 Jul 6.0 16:57:25 10° WSW 16:59:21 12° W 17:01:18 10° WNW visible
27 Jul 5.8 16:44:57 10° SW 16:48:00 16° W 16:51:04 10° NW visible
01 Aug 6.2 17:01:16 10° WSW 17:02:25 11° W 17:03:35 10° WNW visible
